TIME,DELAY(SENSOR),PRES,OXYGEN,RAWTEMP,T(OPTODE),TCPHASE,FLUOR,BETA(BETA700),BETA(BETA412),BETA(BETA440),CDOM,C(CSC),ED(ED412.20),ED(ED444.00),ED(ED489.60),ED(ED554.30),LU(LU412.10),LU(LU443.90),LU(LU489.70),LU(LU554.70),COMP,TILTX,TILTY,CHECK
1368420804,5811,842.6699829101562000,30.0274295806884770,557.5294799804688000,4.5624351501464840,57.0675392150878900,55,98,99,78,81,15552,0,0,0,0,2147121051,2147769938,2147572187,2147569673,1362,2,13,1045
1368424400,5808,903.9199829101562000,33.3945999145507800,563.6691894531250000,4.3721261024475100,56.5724601745605500,55,99,100,78,81,15552,0,0,0,0,2147121691,2147771510,2147570203,2147570130,244,2,13,48170
1368428000,5809,917.8699951171875000,34.0391616821289060,564.0880126953125000,4.3591351509094240,56.4751701354980500,56,100,99,77,81,15538,0,0,0,0,2147123483,2147770249,2147571163,2147568146,384,2,13,31903
1368431600,5812,940.9199829101562000,32.7275009155273440,566.8359985351562000,4.2738418579101560,56.7116889953613300,55,97,100,78,81,15539,0,0,0,0,2147122834,2147768064,2147570514,2147567597,63,2,13,43284
1368435200,5809,938.2600097656250000,34.0812187194824200,568.1701049804688000,4.2324118614196780,56.5103797912597660,55,98,100,77,80,15538,0,0,0,0,2147119606,2147767469,2147573056,2147569289,106,3,13,25696
1368438800,5809,938.5499877929688000,34.9376296997070300,568.7219848632812000,4.2152690887451170,56.3808784484863300,55,97,100,79,81,15536,0,0,0,0,2147122889,2147765906,2147571117,2147568338,3544,2,13,51817
1368442400,5808,969.5700073242188000,39.1453285217285160,570.5233764648438000,4.1592941284179690,55.7501487731933600,55,99,99,78,82,15537,0,0,0,0,2147125842,2147770468,2147572882,2147568356,951,2,13,54659
1368446000,5809,976.4500122070312000,37.3057899475097660,570.1102905273438000,4.1721320152282715,56.0214996337890600,55,96,99,78,81,15536,0,0,0,0,2147122642,2147770742,2147566784,2147570176,410,2,13,19118
1368449600,5809,976.0900268554688000,37.9895706176757800,570.0703735351562000,4.1733717918396000,55.9159889221191400,55,97,99,78,80,15533,0,0,0,0,2147121472,2147768009,2147571401,2147567296,3423,2,13,50345
1368453200,5812,980.4000244140625000,38.1992301940918000,570.1026000976562000,4.1723728179931640,55.8904190063476560,56,98,99,78,81,15535,0,0,0,0,2147121024,2147770742,2147569398,2147564845,76,2,13,6920
1368456800,5808,975.2500000000000000,37.4540710449218750,570.4129028320312000,4.1627287864685060,56.0020904541015600,55,97,100,78,81,15536,0,0,0,0,2147120292,2147770093,2147572123,2147567515,192,2,13,25713
1368460400,5806,980.5599975585938000,34.9222106933593750,570.1845092773438000,4.1698269844055180,56.3982810974121100,54,96,100,78,81,15532,0,0,0,0,2147123913,2147773193,2147573458,2147566070,3491,2,13,58142
1368464000,5809,984.8900146484375000,35.8172798156738300,570.1066284179688000,4.1722469329833980,56.2518615722656250,55,98,100,79,81,15532,0,0,0,0,2147121874,2147769819,2147571776,2147567341,48,2,13,51336
1368467600,5811,982.5700073242188000,37.6602706909179700,570.0767211914062000,4.1731781959533690,55.9733886718750000,55,97,99,78,81,15517,0,0,0,0,2147123693,2147768896,2147577261,2147566619,71,2,13,37656
1368471200,5811,979.6599731445312000,35.9734382629394500,570.6627197265625000,4.1549639701843260,56.2351303100585940,54,99,99,77,81,15496,0,0,0,0,2147121554,2147768950,2147574564,2147570285,3477,2,13,45436
1368474800,5811,977.1599731445312000,36.2180595397949200,571.1032104492188000,4.1412730216979980,56.2040901184082000,55,97,99,76,82,15497,0,0,0,0,2147122075,2147771584,2147575076,2147569005,3571,2,13,47073
1368478400,5812,980.9799804687500000,36.2717208862304700,571.2963256835938000,4.1352710723876950,56.1972007751464840,54,100,100,78,80,15494,0,0,0,0,2147122258,2147772900,2147570240,2147566400,7,3,13,21854
1368482000,5811,975.5399780273438000,38.0356788635253900,572.0632934570312000,4.1114249229431150,55.9330711364746100,55,97,99,78,83,15493,0,0,0,0,2147119588,2147773193,2147571995,2147566701,51,3,13,25656
1368485600,5808,975.1599731445312000,40.4038696289062500,572.7188720703125000,4.0910382270812990,55.5843811035156250,54,98,99,78,81,15494,0,0,0,0,2147120896,2147773833,2147571986,2147566217,694,2,13,7346
1368489200,5807,981.4400024414062000,40.2169494628906250,572.3577880859375000,4.1022682189941410,55.6056213378906250,55,97,100,78,81,15497,0,0,0,0,2147122413,2147776704,2147571163,2147568649,853,2,13,57181
1368492800,5810,981.4199829101562000,38.6216392517089840,571.6994018554688000,4.1227397918701170,55.8415412902832000,55,97,100,78,82,15494,0,0,0,0,2147121572,2147773769,2147572397,2147566381,3441,2,13,52059
1368496400,5809,982.3099975585938000,38.2877693176269500,571.7130737304688000,4.1223130226135250,55.8904304504394500,54,99,99,77,81,15496,0,0,0,0,2147123099,2147773705,2147576201,2147567186,3352,2,13,41569
1368500000,5812,977.9299926757812000,39.2818107604980500,571.6558837890625000,4.1240921020507810,55.7382011413574200,55,98,99,78,81,15493,0,0,0,0,2147122642,2147771328,2147572864,2147567533,3454,2,13,37205
1368503600,5810,987.5399780273438000,38.5725097656250000,571.4323730468750000,4.1310410499572750,55.8467102050781250,55,98,101,78,80,15489,0,0,0,0,2147119936,2147777645,2147572141,2147566829,48,2,13,52370
1368507200,5809,989.9699707031250000,39.0700912475585940,570.4506225585938000,4.1615581512451170,55.7626609802246100,54,95,100,80,81,15494,0,0,0,0,2147124205,2147770578,2147566244,2147563776,3221,2,13,64156
1368510800,5812,990.0100097656250000,37.8123588562011700,570.3930053710938000,4.1633467674255370,55.9489288330078100,56,97,99,77,81,15492,0,0,0,0,2147120411,2147774326,2147568978,2147563227,3442,2,13,19174
1368514400,5808,985.8800048828125000,37.5311203002929700,571.2600708007812000,4.1363949775695800,56.0017509460449200,55,100,100,78,82,15492,0,0,0,0,2147123273,2147774436,2147573065,2147565869,124,2,13,15062
1368518000,5811,987.9600219726562000,38.1985588073730500,571.2365112304688000,4.1371312141418460,55.9041595458984400,56,97,100,78,80,15492,0,0,0,0,2147122550,2147767990,2147570733,2147563849,3511,2,13,41730
1368521600,5809,987.8599853515625000,38.3618392944335940,571.3696899414062000,4.1329879760742190,55.8749618530273440,54,98,100,78,81,15491,0,0,0,0,2147121316,2147775506,2147570861,2147565760,406,2,13,60902
1368525200,5809,980.0000000000000000,36.6361999511718750,572.2020263671875000,4.1071128845214840,56.1519889831543000,55,99,100,77,81,15492,0,0,0,0,2147122953,2147765476,2147576064,2147567213,42,2,13,16999
1368528800,5809,981.7000122070312000,38.8435516357421900,571.9963989257812000,4.1135039329528810,55.8125801086425800,55,100,100,77,81,15493,0,0,0,0,2147123318,2147773961,2147575232,2147566546,3395,3,13,64660
1368532400,5809,982.8300170898438000,39.5447807312011700,571.7421875000000000,4.1214079856872560,55.7012481689453100,55,100,99,80,81,15489,0,0,0,0,2147120320,2147770715,2147570532,2147569033,482,2,13,61020
1368536000,5812,987.6400146484375000,40.3622283935546900,571.8942260742188000,4.1166820526123050,55.5834884643554700,56,99,99,78,81,15491,0,0,0,0,2147122212,2147767716,2147571940,2147566208,3180,2,13,62325
1368539600,5809,989.2100219726562000,38.8105697631835940,571.3574218750000000,4.1333708763122560,55.8063812255859400,55,98,100,77,82,15486,0,0,0,0,2147125467,2147764406,2147569782,2147567168,567,2,13,20571
1368543200,5807,990.7000122070312000,38.8500595092773440,571.5233154296875000,4.1282138824462890,55.8050804138183600,55,97,99,77,82,15488,0,0,0,0,2147122276,2147768813,2147572973,2147563693,3587,2,13,62997
1368546800,5808,994.3300170898438000,39.6629409790039060,570.8776855468750000,4.1482830047607420,55.6740913391113300,55,99,100,78,81,15488,0,0,0,0,2147119524,2147768448,2147577682,2147565467,476,2,13,62757
1368550400,5811,994.0599975585938000,37.8980598449707000,570.4929199218750000,4.1602420806884770,55.9366607666015600,55,98,99,78,81,15487,0,0,0,0,2147120539,2147766729,2147576466,2147566107,211,2,13,39138
1368554000,5811,987.6799926757812000,38.7025794982910160,570.8718872070312000,4.1484618186950680,55.8221397399902340,55,98,100,77,82,15489,0,0,0,0,2147124416,2147765549,2147570624,2147567040,809,2,13,24933
1368557600,5810,987.5300292968750000,37.9689788818359400,571.0302734375000000,4.1435379981994630,55.9366302490234400,55,98,99,78,79,15487,0,0,0,0,2147125083,2147769472,2147573220,2147567542,3438,2,13,8314
1368561200,5811,984.0399780273438000,39.6225395202636700,572.0336914062500000,4.1123452186584470,55.6969795227050800,54,96,99,77,81,15486,0,0,0,0,2147123830,2147767670,2147572059,2147570203,3535,2,13,59822
1368563156,5810,987.7999877929688000,39.5655403137207000,572.1032714843750000,4.1101818084716800,55.7010002136230500,55,99,101,79,82,15487,0,0,0,0,2147126098,2147771584,2147576310,2147565238,3535,2,13,51721
